Tanana, AK

7:47 PM AKDT on August 28, 2016 (GMT -0800)
Calhoun Memorial

Weather History for PATA - December, 2013

Change the Weather History Date:

Sunday, December 1, 2013

  Actual Average Record
Temperature  
Mean Temperature -18 °F -  
Max Temperature -9 °F -1 °F 30 °F (2006)
Min Temperature -27 °F -17 °F -54 °F (1990)
Degree Days  
Heating Degree Days 83    
Moisture  
Dew Point -25 °F    
Average Humidity 77    
Maximum Humidity 84    
Minimum Humidity 73    
Precipitation  
Precipitation 0.00 in - - ()
Snow  
Snow 0.00 in - - ()
Snow Depth 8.00 in    
Sea Level Pressure  
Sea Level Pressure 30.82 in    
Wind  
Wind Speed 1 mph (ESE)    
Max Wind Speed 6 mph    
Max Gust Speed -    
Visibility 10 miles    
Events      
Averages and records for this station are not official NWS values.
T = Trace of Precipitation, MM = Missing Value Source: NWS Daily Summary

Daily Weather History Graph

Daily Weather History Graph

Search for Another Location

Airport or City:

Trip Planner

Search our weather history database for the weather conditions in past years. The results will help you decide how hot, cold, wet, or windy it might be!

Date:

Astronomy

Dec. 01, 2013 Rise Set
Actual Time 10:42 AM AKST 3:11 PM AKST
Civil Twilight 9:25 AM AKST 4:29 PM AKST
Nautical Twilight 8:15 AM AKST 5:38 PM AKST
Astronomical Twilight 7:14 AM AKST 6:39 PM AKST
Moon 8:33 AM AKST (12/1) 3:04 PM AKST (12/1)
Length of Visible Light 7h 04m
Length of Day
4h 28m
Waning Crescent, 2% of the Moon is Illuminated
Dec 1
Waning Crescent
Dec 2
New
Dec 9
First Quarter
Dec 17
Full
Dec 25
Last Quarter

Hourly Weather History & Observations

Time (AKST) Temp. Windchill Dew Point Humidity Pressure Visibility Wind Dir Wind Speed Gust Speed Precip Events Conditions
12:52 AM -25.1 °F - -31.0 °F 74% 30.80 in 10.0 mi Calm Calm - N/A   Clear
1:52 AM -26.0 °F - -31.0 °F 77% 30.81 in 10.0 mi Calm Calm - N/A   Clear
2:52 AM -25.1 °F - -31.0 °F 74% 30.82 in 10.0 mi Calm Calm - N/A   Clear
3:52 AM -24.0 °F - -29.9 °F 74% 30.81 in 9.0 mi Calm Calm - N/A   Clear
4:52 AM -25.1 °F - -31.0 °F 74% 30.81 in 9.0 mi Calm Calm - N/A   Clear
5:52 AM -26.0 °F - -31.0 °F 77% 30.81 in 10.0 mi Calm Calm - N/A   Clear
6:52 AM -26.0 °F - -32.1 °F 73% 30.81 in 10.0 mi Calm Calm - N/A   Clear
7:52 AM -27.0 °F - -32.1 °F 77% 30.82 in 10.0 mi Calm Calm - N/A   Clear
8:52 AM -27.0 °F - -33.0 °F 73% 30.82 in 10.0 mi Calm Calm - N/A   Clear
9:52 AM -27.9 °F - -34.1 °F 73% 30.82 in 10.0 mi Calm Calm - N/A   Mostly Cloudy
10:52 AM -27.9 °F - -33.0 °F 77% 30.83 in 10.0 mi Calm Calm - N/A   Mostly Cloudy
11:52 AM -26.0 °F - -31.0 °F 77% 30.83 in 10.0 mi Calm Calm - N/A   Mostly Cloudy
12:52 PM -24.0 °F - -29.0 °F 77% 30.83 in 10.0 mi Calm Calm - N/A   Mostly Cloudy
1:31 PM -22.0 °F - -25.6 °F 83% 30.79 in 10.0 mi Calm Calm - N/A   Mostly Cloudy
1:52 PM -20.9 °F - -25.1 °F 81% 30.83 in 10.0 mi Calm Calm - N/A   Mostly Cloudy
2:52 PM -17.0 °F - -22.0 °F 78% 30.82 in 10.0 mi Calm Calm - N/A   Overcast
3:52 PM -15.0 °F - -20.0 °F 78% 30.83 in 10.0 mi Calm Calm - N/A   Overcast
4:52 PM -14.1 °F -23.9 °F -18.9 °F 79% 30.83 in 9.0 mi SE 3.5 mph - N/A   Overcast
5:52 PM -13.0 °F -25.1 °F -18.0 °F 78% 30.82 in 10.0 mi ESE 4.6 mph - N/A   Overcast
6:52 PM -11.0 °F -20.4 °F -16.1 °F 78% 30.83 in 10.0 mi East 3.5 mph - N/A   Overcast
7:52 PM -9.9 °F -19.2 °F -15.0 °F 78% 30.83 in 10.0 mi SE 3.5 mph - N/A   Overcast
8:52 PM -9.9 °F -19.2 °F -15.0 °F 78% 30.82 in 10.0 mi ESE 3.5 mph - N/A   Overcast
9:52 PM -9.9 °F -19.2 °F -15.0 °F 78% 30.82 in 10.0 mi East 3.5 mph - N/A   Overcast
10:52 PM -11.0 °F -20.4 °F -16.1 °F 78% 30.82 in 10.0 mi ESE 3.5 mph - N/A   Overcast
11:28 PM -16.6 °F - -20.2 °F 84% 30.78 in 10.0 mi Calm Calm - N/A   Scattered Clouds
11:52 PM -17.0 °F -31.7 °F -22.0 °F 78% 30.83 in 10.0 mi SE 5.8 mph - N/A   Clear